Location: St. Louis
(38.6270°N, 90.1994°W)
Time: 19:36:20
(UTC-06:00)

Vanguard 3 - Pass Details

Date: 03 December 2021
Orbit: 508 x 3260 km, 33.3° (Epoch: 19 January)

Event Time Altitude Azimuth Distance (km) Brightness Sun altitude
Exits shadow 03:41:02 37° 216° (SW) 4,337 10.4 -38.5°
Maximum altitude 03:50:15 59° 159° (SSE) 3,478 10.2 -36.7°
Drops below altitude 10° 04:06:11 10° 85° (E) 5,126 12.0 -33.6°
Sets 04:09:35 0° 82° (E) 5,834 12.6 -33.0°
